Henderson, NV

11:20 AM PDT on March 30, 2017 (GMT -0700)
Henderson

Weather History for KHND - December, 2012

Change the Weather History Date:

Saturday, December 8, 2012

  Actual Average (KLAS) Record (KLAS)
Temperature  
Mean Temperature 54 °F -  
Max Temperature 65 °F 57 °F 77 °F (1939)
Min Temperature 43 °F 36 °F 23 °F (1953)
Degree Days  
Heating Degree Days 11    
Growing Degree Days 4 (Base 50)    
Moisture  
Dew Point 20 °F    
Average Humidity 29    
Maximum Humidity 44    
Minimum Humidity 15    
Precipitation  
Precipitation 0.00 in - - ()
Sea Level Pressure  
Sea Level Pressure 29.96 in    
Wind  
Wind Speed 10 mph (SSW)    
Max Wind Speed 15 mph    
Max Gust Speed -    
Visibility 10 miles    
Events      
Averages and records for this station are not official NWS values.
T = Trace of Precipitation, MM = Missing Value Source: NWS Daily Summary

Daily Weather History Graph

Daily Weather History Graph

Search for Another Location

Airport or City:

Trip Planner

Search our weather history database for the weather conditions in past years. The results will help you decide how hot, cold, wet, or windy it might be!

Date:

Astronomy

Dec. 08, 2012 Rise Set
Actual Time 6:39 AM PST 4:26 PM PST
Civil Twilight 6:10 AM PST 4:54 PM PST
Nautical Twilight 5:38 AM PST 5:26 PM PST
Astronomical Twilight 5:07 AM PST 5:57 PM PST
Moon 1:16 AM PST (12/8) 12:51 PM PST (12/8)
Length of Visible Light 10h 44m
Length of Day
9h 47m
Waning Crescent, 27% of the Moon is Illuminated
Dec 8
Waning Crescent
Dec 13
New
Dec 19
First Quarter
Dec 28
Full
Jan 4
Last Quarter

Hourly Weather History & Observations

Time (PST) Temp. Windchill Dew Point Humidity Pressure Visibility Wind Dir Wind Speed Gust Speed Precip Events Conditions
12:56 AM 45.0 °F 39.3 °F 23.0 °F 42% 29.97 in 10.0 mi SSW 11.5 mph - N/A   Clear
1:56 AM 43.9 °F 39.3 °F 23.0 °F 44% 29.97 in 10.0 mi SSW 8.1 mph - N/A   Clear
2:56 AM 43.0 °F 36.8 °F 22.1 °F 44% 29.97 in 10.0 mi SSW 11.5 mph - N/A   Clear
3:56 AM 43.9 °F 37.2 °F 22.1 °F 42% 29.96 in 10.0 mi SSW 13.8 mph - N/A   Clear
4:56 AM 43.0 °F 36.8 °F 22.1 °F 44% 29.98 in 10.0 mi SSW 11.5 mph - N/A   Clear
5:56 AM 43.9 °F 36.8 °F 21.0 °F 40% 29.98 in 10.0 mi SW 15.0 mph - N/A   Clear
6:56 AM 43.9 °F 37.2 °F 21.0 °F 40% 30.00 in 10.0 mi SW 13.8 mph - N/A   Clear
7:56 AM 46.9 °F - 21.0 °F 36% 29.99 in 10.0 mi SW 11.5 mph - N/A   Clear
8:56 AM 50.0 °F - 21.0 °F 32% 30.00 in 10.0 mi SW 11.5 mph - N/A   Clear
9:56 AM 56.8 °F - 21.0 °F 25% 30.00 in 10.0 mi WSW 8.1 mph - N/A   Clear
10:56 AM 61.9 °F - 19.0 °F 19% 29.97 in 10.0 mi SW 6.9 mph - N/A   Clear
11:56 AM 63.9 °F - 21.0 °F 19% 29.94 in 10.0 mi Calm Calm - N/A   Clear
12:56 PM 65.8 °F - 21.0 °F 18% 29.93 in 10.0 mi ENE 5.8 mph - N/A   Clear
1:56 PM 65.8 °F - 17.1 °F 15% 29.92 in 10.0 mi NNE 8.1 mph - N/A   Clear
2:56 PM 64.9 °F - 19.0 °F 17% 29.92 in 10.0 mi NE 5.8 mph - N/A   Clear
3:56 PM 63.9 °F - 21.0 °F 19% 29.91 in 10.0 mi Calm Calm - N/A   Clear
4:56 PM 56.8 °F - 25.2 °F 30% 29.92 in 10.0 mi Calm Calm - N/A   Clear
6:56 PM 50.0 °F - 15.1 °F 25% 29.95 in 10.0 mi SSW 9.2 mph - N/A   Clear
7:56 PM 50.0 °F - 14.0 °F 24% 29.95 in 10.0 mi SSW 8.1 mph - N/A   Clear
8:56 PM 48.9 °F - 14.0 °F 25% 29.96 in 10.0 mi SSW 11.5 mph - N/A   Clear
9:56 PM 50.0 °F - 14.0 °F 24% 29.95 in 10.0 mi SW 11.5 mph - N/A   Clear
11:56 PM 50.9 °F - 15.1 °F 24% 29.95 in 10.0 mi South 9.2 mph - N/A   Clear